This demonstration page uses our WeatherBlox Daily Observations layout. Learn more.

Left ArrowRight Arrow

39.01783, -85.05884

Hourly Observations for April 4, 2018

Temp ( °F °C ) Dew Point ( °F °C ) Humidity (%) Winds ( mph kmh ) Pressure ( in mb ) Visibility ( mi km ) Precip ( " mm )
12:07 am 00:07 Cloudy with Light Rain 59 15 57 13.9 93 93 WNW 32 52 29.56 1001 7 11 0.01 0.25
12:52 am 00:52 Cloudy 49 9.4 47 8.3 93 93 WNW 23 37 29.62 1003 10 16 0.01 0.25
1:03 am 01:03 Cloudy with Drizzle 48 8.9 46 7.8 93 93 WNW 24 39 29.65 1004 8 13 N/A
1:27 am 01:27 Cloudy 47 8.3 44 6.7 90 90 WNW 24 39 29.68 1005 10 16 N/A
1:52 am 01:52 Cloudy 46 7.8 41 5 83 83 W 17 28 29.68 1005 10 16 N/A
2:07 am 02:07 Cloudy 46 7.8 41 5 83 83 W 16 26 29.71 1006 10 16 N/A
2:52 am 02:52 Cloudy 44 6.7 39 3.9 83 83 W 23 37 29.72 1007 10 16 N/A
3:52 am 03:52 Cloudy with Drizzle 42 5.6 35 1.7 76 76 W 23 37 29.76 1008 10 16 N/A
4:06 am 04:06 Cloudy 42 5.6 34 1.1 73 73 W 23 37 29.80 1009 10 16 N/A
4:38 am 04:38 Cloudy 40 4.4 34 1.1 79 79 W 20 31 29.83 1010 10 16 N/A
4:52 am 04:52 Cloudy 40 4.4 32 undefined 73 73 W 30 48 29.80 1009 10 16 N/A
5:07 am 05:07 Cloudy 40 4.4 30 -1.1 68 68 W 28 44 29.83 1010 10 16 N/A
5:52 am 05:52 Cloudy 38 3.3 27 -2.8 65 65 W 24 39 29.84 1011 10 16 N/A
6:52 am 06:52 Cloudy with Light Snow 37 2.8 27 -2.8 67 67 W 17 28 29.89 1012 9 14 N/A
7:52 am 07:52 Cloudy 35 1.7 25 -3.9 67 67 W 26 43 29.93 1014 10 16 N/A
8:52 am 08:52 Windy with Snow Likely 35 1.7 25 -3.9 67 67 W 25 41 29.97 1015 9 14 N/A
9:52 am 09:52 Cloudy 35 1.7 25 -3.9 67 67 W 25 41 30.00 1016 10 16 N/A
10:52 am 10:52 Windy with Snow Likely 34 1.1 24 -4.4 67 67 W 23 37 30.05 1018 8 13 N/A
11:52 am 11:52 Cloudy 35 1.7 23 -5 61 61 W 17 28 30.09 1019 10 16 N/A
12:52 pm 12:52 Cloudy 36 2.2 24 -4.4 62 62 W 21 33 30.12 1020 10 16 N/A
1:52 pm 13:52 Cloudy with Light Snow 39 3.9 26 -3.3 60 60 W 18 30 30.13 1020 9 14 N/A
2:52 pm 14:52 Cloudy 37 2.8 23 -5 57 57 W 22 35 30.15 1021 10 16 N/A
3:52 pm 15:52 Cloudy 38 3.3 24 -4.4 57 57 W 20 31 30.16 1021 10 16 N/A
4:52 pm 16:52 Cloudy 37 2.8 24 -4.4 59 59 WNW 21 33 30.18 1022 10 16 N/A
5:52 pm 17:52 Cloudy 36 2.2 23 -5 59 59 WNW 17 28 30.21 1023 10 16 N/A
6:52 pm 18:52 Cloudy 35 1.7 23 -5 61 61 WNW 20 31 30.23 1024 10 16 N/A
7:52 pm 19:52 Cloudy 35 1.7 23 -5 61 61 W 17 28 30.25 1024 10 16 N/A
8:52 pm 20:52 Cloudy 34 1.1 23 -5 64 64 W 13 20 30.26 1025 10 16 N/A
9:52 pm 21:52 Cloudy 34 1.1 21 -6.1 59 59 WNW 12 19 30.27 1025 10 16 N/A
10:52 pm 22:52 Cloudy 33 0.6 22 -5.6 64 64 WNW 12 19 30.28 1026 10 16 N/A
11:52 pm 23:52 Partly Cloudy 32 undefined 17 -8.3 54 54 W 10 17 30.27 1025 10 16 N/A

Powered by AerisWeather